Year,Month,Day,Hour,Minute,Value (Times are PST for temperature in C)
2008,06,21,00,00,15.20
2008,06,21,00,01,15.10
2008,06,21,00,02,15.00
2008,06,21,00,03,14.90
2008,06,21,00,04,14.80
2008,06,21,00,05,14.70
2008,06,21,00,06,14.60
2008,06,21,00,07,14.50
2008,06,21,00,08,14.50
2008,06,21,00,09,14.40
2008,06,21,00,10,14.20
2008,06,21,00,11,14.20
2008,06,21,00,12,14.10
2008,06,21,00,13,14.00
2008,06,21,00,14,14.00
2008,06,21,00,15,14.00
2008,06,21,00,16,14.00
2008,06,21,00,17,13.90
2008,06,21,00,18,13.90
2008,06,21,00,19,13.90
2008,06,21,00,20,13.90
2008,06,21,00,21,13.90
2008,06,21,00,22,13.90
2008,06,21,00,23,13.90
2008,06,21,00,24,13.90
2008,06,21,00,25,13.90
2008,06,21,00,26,14.00
2008,06,21,00,27,14.00
2008,06,21,00,28,14.00
2008,06,21,00,29,14.00
2008,06,21,00,30,14.00
2008,06,21,00,31,14.00
2008,06,21,00,32,14.00
2008,06,21,00,33,14.00
2008,06,21,00,34,14.00
2008,06,21,00,35,14.00
2008,06,21,00,36,14.00
2008,06,21,00,37,14.00
2008,06,21,00,38,14.00
2008,06,21,00,39,14.00
2008,06,21,00,40,14.10
2008,06,21,00,41,14.10
2008,06,21,00,42,14.10
2008,06,21,00,43,14.10
2008,06,21,00,44,14.10
2008,06,21,00,45,14.10
2008,06,21,00,46,14.10
2008,06,21,00,47,14.20
2008,06,21,00,48,14.20
2008,06,21,00,49,14.20
2008,06,21,00,50,14.20
2008,06,21,00,51,14.20
2008,06,21,00,52,14.20
2008,06,21,00,53,14.20
2008,06,21,00,54,14.20
2008,06,21,00,55,14.20
2008,06,21,00,56,14.20
2008,06,21,00,57,14.20
2008,06,21,00,58,14.20
2008,06,21,00,59,14.20
2008,06,21,01,00,14.20
2008,06,21,01,01,14.30
2008,06,21,01,02,14.30
2008,06,21,01,03,14.30
2008,06,21,01,04,14.30
2008,06,21,01,05,14.30
2008,06,21,01,06,14.40
2008,06,21,01,07,14.40
2008,06,21,01,08,14.40
2008,06,21,01,09,14.40
2008,06,21,01,10,14.40
2008,06,21,01,11,14.40
2008,06,21,01,12,14.40
2008,06,21,01,13,14.40
2008,06,21,01,14,14.40
2008,06,21,01,15,14.40
2008,06,21,01,16,14.40
2008,06,21,01,17,14.40
2008,06,21,01,18,14.40
2008,06,21,01,19,14.40
2008,06,21,01,20,14.40
2008,06,21,01,21,14.30
2008,06,21,01,22,14.30
2008,06,21,01,23,14.30
2008,06,21,01,24,14.30
2008,06,21,01,25,14.30
2008,06,21,01,26,14.30
2008,06,21,01,27,14.30
2008,06,21,01,28,14.30
2008,06,21,01,29,14.20
2008,06,21,01,30,14.20
2008,06,21,01,31,14.20
2008,06,21,01,32,14.20
2008,06,21,01,33,14.20
2008,06,21,01,34,14.20
2008,06,21,01,35,14.20
2008,06,21,01,36,14.20
2008,06,21,01,37,14.20
2008,06,21,01,38,14.20
2008,06,21,01,39,14.20
2008,06,21,01,40,14.20
2008,06,21,01,41,14.20
2008,06,21,01,42,14.20
2008,06,21,01,43,14.20
2008,06,21,01,44,14.10
2008,06,21,01,45,14.10
2008,06,21,01,46,14.10
2008,06,21,01,47,14.00
2008,06,21,01,48,14.00
2008,06,21,01,49,14.00
2008,06,21,01,50,14.00
2008,06,21,01,51,14.00
2008,06,21,01,52,14.00
2008,06,21,01,53,13.90
2008,06,21,01,54,13.90
2008,06,21,01,55,13.90
2008,06,21,01,56,13.90
2008,06,21,01,57,13.80
2008,06,21,01,58,13.80
2008,06,21,01,59,13.80
2008,06,21,02,00,13.70
2008,06,21,02,01,13.70
2008,06,21,02,02,13.70
2008,06,21,02,03,13.70
2008,06,21,02,04,13.70
2008,06,21,02,05,13.60
2008,06,21,02,06,13.60
2008,06,21,02,07,13.50
2008,06,21,02,08,13.50
2008,06,21,02,09,13.50
2008,06,21,02,10,13.40
2008,06,21,02,11,13.40
2008,06,21,02,12,13.30
2008,06,21,02,13,13.30
2008,06,21,02,14,13.30
2008,06,21,02,15,13.30
2008,06,21,02,16,13.20
2008,06,21,02,17,13.20
2008,06,21,02,18,13.10
2008,06,21,02,19,13.10
2008,06,21,02,20,13.10
2008,06,21,02,21,13.00
2008,06,21,02,22,13.00
2008,06,21,02,23,12.90
2008,06,21,02,24,12.90
2008,06,21,02,25,12.80
2008,06,21,02,26,12.80
2008,06,21,02,27,12.80
2008,06,21,02,28,12.80
2008,06,21,02,29,12.80
2008,06,21,02,30,12.70
2008,06,21,02,31,12.70
2008,06,21,02,32,12.70
2008,06,21,02,33,12.60
2008,06,21,02,34,12.60
2008,06,21,02,35,12.50
2008,06,21,02,36,12.50
2008,06,21,02,37,12.40
2008,06,21,02,38,12.40
2008,06,21,02,39,12.30
2008,06,21,02,40,12.30
2008,06,21,02,41,12.30
2008,06,21,02,42,12.30
2008,06,21,02,43,12.30
2008,06,21,02,44,12.20
2008,06,21,02,45,12.20
2008,06,21,02,46,12.20
2008,06,21,02,47,12.10
2008,06,21,02,48,12.10
2008,06,21,02,49,12.10
2008,06,21,02,50,12.00
2008,06,21,02,51,12.00
2008,06,21,02,52,11.90
2008,06,21,02,53,11.90
2008,06,21,02,54,11.90
2008,06,21,02,55,11.80
2008,06,21,02,56,11.80
2008,06,21,02,57,11.80
2008,06,21,02,58,11.80
2008,06,21,02,59,11.80
2008,06,21,03,00,11.80
2008,06,21,03,01,11.80
2008,06,21,03,02,11.80
2008,06,21,03,03,11.80
2008,06,21,03,04,11.80
2008,06,21,03,05,11.80
2008,06,21,03,06,11.80
2008,06,21,03,07,11.80
2008,06,21,03,08,11.80
2008,06,21,03,09,11.80
2008,06,21,03,10,11.80
2008,06,21,03,11,11.80
2008,06,21,03,12,11.80
2008,06,21,03,13,11.80
2008,06,21,03,14,11.80
2008,06,21,03,15,11.80
2008,06,21,03,16,11.80
2008,06,21,03,17,11.80
2008,06,21,03,18,11.70
2008,06,21,03,19,11.70
2008,06,21,03,20,11.70
2008,06,21,03,21,11.70
2008,06,21,03,22,11.70
2008,06,21,03,23,11.70
2008,06,21,03,24,11.70
2008,06,21,03,25,11.70
2008,06,21,03,26,11.70
2008,06,21,03,27,11.70
2008,06,21,03,28,11.70
2008,06,21,03,29,11.70
2008,06,21,03,30,11.70
2008,06,21,03,31,11.70
2008,06,21,03,32,11.70
2008,06,21,03,33,11.70
2008,06,21,03,34,11.70
2008,06,21,03,35,11.70
2008,06,21,03,36,11.70
2008,06,21,03,37,11.70
2008,06,21,03,38,11.60
2008,06,21,03,39,11.60
2008,06,21,03,40,11.70
2008,06,21,03,41,11.70
2008,06,21,03,42,11.70
2008,06,21,03,43,11.70
2008,06,21,03,44,11.70
2008,06,21,03,45,11.70
2008,06,21,03,46,11.70
2008,06,21,03,47,11.70
2008,06,21,03,48,11.70
2008,06,21,03,49,11.70
2008,06,21,03,50,11.70
2008,06,21,03,51,11.70
2008,06,21,03,52,11.70
2008,06,21,03,53,11.70
2008,06,21,03,54,11.70
2008,06,21,03,55,11.70
2008,06,21,03,56,11.70
2008,06,21,03,57,11.70
2008,06,21,03,58,11.70
2008,06,21,03,59,11.70
2008,06,21,04,00,11.70
2008,06,21,04,01,11.70
2008,06,21,04,02,11.70
2008,06,21,04,03,11.70
2008,06,21,04,04,11.70
2008,06,21,04,05,11.70
2008,06,21,04,06,11.70
2008,06,21,04,07,11.70
2008,06,21,04,08,11.70
2008,06,21,04,09,11.70
2008,06,21,04,10,11.70
2008,06,21,04,11,11.70
2008,06,21,04,12,11.70
2008,06,21,04,13,11.70
2008,06,21,04,14,11.70
2008,06,21,04,15,11.70
2008,06,21,04,16,11.70
2008,06,21,04,17,11.70
2008,06,21,04,18,11.70
2008,06,21,04,19,11.80
2008,06,21,04,20,11.80
2008,06,21,04,21,11.80
2008,06,21,04,22,11.80
2008,06,21,04,23,11.80
2008,06,21,04,24,11.80
2008,06,21,04,25,11.80
2008,06,21,04,26,11.80
2008,06,21,04,27,11.80
2008,06,21,04,28,11.80
2008,06,21,04,29,11.80
2008,06,21,04,30,11.80
2008,06,21,04,31,11.80
2008,06,21,04,32,11.80
2008,06,21,04,33,11.80
2008,06,21,04,34,11.80
2008,06,21,04,35,11.80
2008,06,21,04,36,11.80
2008,06,21,04,37,11.80
2008,06,21,04,38,11.80
2008,06,21,04,39,11.80
2008,06,21,04,40,11.80
2008,06,21,04,41,11.80
2008,06,21,04,42,11.80
2008,06,21,04,43,11.80
2008,06,21,04,44,11.80
2008,06,21,04,45,11.80
2008,06,21,04,46,11.80
2008,06,21,04,47,11.80
2008,06,21,04,48,11.80
2008,06,21,04,49,11.80
2008,06,21,04,50,11.80
2008,06,21,04,51,11.80
2008,06,21,04,52,11.80
2008,06,21,04,53,11.80
2008,06,21,04,54,11.80
2008,06,21,04,55,11.80
2008,06,21,04,56,11.80
2008,06,21,04,57,11.80
2008,06,21,04,58,11.80
2008,06,21,04,59,11.80
2008,06,21,05,00,11.80
2008,06,21,05,01,11.80
2008,06,21,05,02,11.80
2008,06,21,05,03,11.80
2008,06,21,05,04,11.80
2008,06,21,05,05,11.80
2008,06,21,05,06,11.70
2008,06,21,05,07,11.70
2008,06,21,05,08,11.70
2008,06,21,05,09,11.70
2008,06,21,05,10,11.70
2008,06,21,05,11,11.70
2008,06,21,05,12,11.70
2008,06,21,05,13,11.70
2008,06,21,05,14,11.70
2008,06,21,05,15,11.70
2008,06,21,05,16,11.70
2008,06,21,05,17,11.70
2008,06,21,05,18,11.70
2008,06,21,05,19,11.70
2008,06,21,05,20,11.60
2008,06,21,05,21,11.70
2008,06,21,05,22,11.70
2008,06,21,05,23,11.70
2008,06,21,05,24,11.60
2008,06,21,05,25,11.60
2008,06,21,05,26,11.60
2008,06,21,05,27,11.60
2008,06,21,05,28,11.60
2008,06,21,05,29,11.60
2008,06,21,05,30,11.60
2008,06,21,05,31,11.60
2008,06,21,05,32,11.60
2008,06,21,05,33,11.60
2008,06,21,05,34,11.60
2008,06,21,05,35,11.60
2008,06,21,05,36,11.60
2008,06,21,05,37,11.60
2008,06,21,05,38,11.60
2008,06,21,05,39,11.60
2008,06,21,05,40,11.60
2008,06,21,05,41,11.60
2008,06,21,05,42,11.60
2008,06,21,05,43,11.60
2008,06,21,05,44,11.70
2008,06,21,05,45,11.70
2008,06,21,05,46,11.70
2008,06,21,05,47,11.70
2008,06,21,05,48,11.70
2008,06,21,05,49,11.70
2008,06,21,05,50,11.70
2008,06,21,05,51,11.70
2008,06,21,05,52,11.70
2008,06,21,05,53,11.70
2008,06,21,05,54,11.80
2008,06,21,05,55,11.80
2008,06,21,05,56,11.80
2008,06,21,05,57,11.80
2008,06,21,05,58,11.80
2008,06,21,05,59,11.80
2008,06,21,06,00,11.80
2008,06,21,06,01,11.80
2008,06,21,06,02,11.80
2008,06,21,06,03,11.80
2008,06,21,06,04,11.80
2008,06,21,06,05,11.90
2008,06,21,06,06,11.90
2008,06,21,06,07,11.90
2008,06,21,06,08,11.90
2008,06,21,06,09,11.90
2008,06,21,06,10,11.90
2008,06,21,06,11,11.90
2008,06,21,06,12,11.90
2008,06,21,06,13,11.90
2008,06,21,06,14,11.90
2008,06,21,06,15,12.00
2008,06,21,06,16,12.00
2008,06,21,06,17,12.00
2008,06,21,06,18,12.00
2008,06,21,06,19,12.00
2008,06,21,06,20,12.00
2008,06,21,06,21,12.00
2008,06,21,06,22,12.10
2008,06,21,06,23,12.10
2008,06,21,06,24,12.10
2008,06,21,06,25,12.10
2008,06,21,06,26,12.20
2008,06,21,06,27,12.20
2008,06,21,06,28,12.20
2008,06,21,06,29,12.20
2008,06,21,06,30,12.30
2008,06,21,06,31,12.30
2008,06,21,06,32,12.30
2008,06,21,06,33,12.30
2008,06,21,06,34,12.30
2008,06,21,06,35,12.30
2008,06,21,06,36,12.30
2008,06,21,06,37,12.30
2008,06,21,06,38,12.30
2008,06,21,06,39,12.40
2008,06,21,06,40,12.40
2008,06,21,06,41,12.40
2008,06,21,06,42,12.50
2008,06,21,06,43,12.50
2008,06,21,06,44,12.50
2008,06,21,06,45,12.50
2008,06,21,06,46,12.60
2008,06,21,06,47,12.60
2008,06,21,06,48,12.60
2008,06,21,06,49,12.70
2008,06,21,06,50,12.70
2008,06,21,06,51,12.70
2008,06,21,06,52,12.70
2008,06,21,06,53,12.80
2008,06,21,06,54,12.80
2008,06,21,06,55,12.80
2008,06,21,06,56,12.80
2008,06,21,06,57,12.80
2008,06,21,06,58,12.90
2008,06,21,06,59,12.90
2008,06,21,07,00,12.90
2008,06,21,07,01,13.00
2008,06,21,07,02,13.00
2008,06,21,07,03,13.00
2008,06,21,07,04,13.10
2008,06,21,07,05,13.10
2008,06,21,07,06,13.10
2008,06,21,07,07,13.20
2008,06,21,07,08,13.20
2008,06,21,07,09,13.20
2008,06,21,07,10,13.20
2008,06,21,07,11,13.30
2008,06,21,07,12,13.30
2008,06,21,07,13,13.30
2008,06,21,07,14,13.30
2008,06,21,07,15,13.30
2008,06,21,07,16,13.30
2008,06,21,07,17,13.30
2008,06,21,07,18,13.30
2008,06,21,07,19,13.30
2008,06,21,07,20,13.40
2008,06,21,07,21,13.40
2008,06,21,07,22,13.40
2008,06,21,07,23,13.50
2008,06,21,07,24,13.50
2008,06,21,07,25,13.50
2008,06,21,07,26,13.60
2008,06,21,07,27,13.60
2008,06,21,07,28,13.60
2008,06,21,07,29,13.70
2008,06,21,07,30,13.70
2008,06,21,07,31,13.70
2008,06,21,07,32,13.70
2008,06,21,07,33,13.70
2008,06,21,07,34,13.70
2008,06,21,07,35,13.60
2008,06,21,07,36,13.60
2008,06,21,07,37,13.50
2008,06,21,07,38,13.50
2008,06,21,07,39,13.40
2008,06,21,07,40,13.40
2008,06,21,07,41,13.30
2008,06,21,07,42,13.30
2008,06,21,07,43,13.30
2008,06,21,07,44,13.30
2008,06,21,07,45,13.30
2008,06,21,07,46,13.30
2008,06,21,07,47,13.30
2008,06,21,07,48,13.30
2008,06,21,07,49,13.30
2008,06,21,07,50,13.30
2008,06,21,07,51,13.30
2008,06,21,07,52,13.30
2008,06,21,07,53,13.40
2008,06,21,07,54,13.40
2008,06,21,07,55,13.40
2008,06,21,07,56,13.50
2008,06,21,07,57,13.50
2008,06,21,07,58,13.60
2008,06,21,07,59,13.60
2008,06,21,08,00,13.60
2008,06,21,08,01,13.70
2008,06,21,08,02,13.70
2008,06,21,08,03,13.70
2008,06,21,08,04,13.80
2008,06,21,08,05,13.90
2008,06,21,08,06,13.90
2008,06,21,08,07,13.90
2008,06,21,08,08,13.90
2008,06,21,08,09,14.00
2008,06,21,08,10,14.00
2008,06,21,08,11,14.00
2008,06,21,08,12,14.10
2008,06,21,08,13,14.10
2008,06,21,08,14,14.10
2008,06,21,08,15,14.10
2008,06,21,08,16,14.10
2008,06,21,08,17,14.10
2008,06,21,08,18,14.10
2008,06,21,08,19,14.20
2008,06,21,08,20,14.20
2008,06,21,08,21,14.20
2008,06,21,08,22,14.10
2008,06,21,08,23,14.00
2008,06,21,08,24,13.90
2008,06,21,08,25,13.90
2008,06,21,08,26,13.80
2008,06,21,08,27,13.70
2008,06,21,08,28,13.70
2008,06,21,08,29,13.70
2008,06,21,08,30,13.70
2008,06,21,08,31,13.70
2008,06,21,08,32,13.70
2008,06,21,08,33,13.70
2008,06,21,08,34,13.70
2008,06,21,08,35,13.70
2008,06,21,08,36,13.80
2008,06,21,08,37,13.80
2008,06,21,08,38,13.80
2008,06,21,08,39,13.80
2008,06,21,08,40,13.70
2008,06,21,08,41,13.70
2008,06,21,08,42,13.70
2008,06,21,08,43,13.70
2008,06,21,08,44,13.70
2008,06,21,08,45,13.70
2008,06,21,08,46,13.70
2008,06,21,08,47,13.70
2008,06,21,08,48,13.70
2008,06,21,08,49,13.70
2008,06,21,08,50,13.60
2008,06,21,08,51,13.60
2008,06,21,08,52,13.60
2008,06,21,08,53,13.60
2008,06,21,08,54,13.60
2008,06,21,08,55,13.60
2008,06,21,08,56,13.60
2008,06,21,08,57,13.70
2008,06,21,08,58,13.70
2008,06,21,08,59,13.70
2008,06,21,09,00,13.70
2008,06,21,09,01,13.80
2008,06,21,09,02,13.80
2008,06,21,09,03,13.90
2008,06,21,09,04,13.90
2008,06,21,09,05,14.00
2008,06,21,09,06,14.00
2008,06,21,09,07,14.10
2008,06,21,09,08,14.20
2008,06,21,09,09,14.20
2008,06,21,09,10,14.20
2008,06,21,09,11,14.30
2008,06,21,09,12,14.40
2008,06,21,09,13,14.50
2008,06,21,09,14,14.50
2008,06,21,09,15,14.60
2008,06,21,09,16,14.60
2008,06,21,09,17,14.60
2008,06,21,09,18,14.70
2008,06,21,09,19,14.80
2008,06,21,09,20,14.80
2008,06,21,09,21,14.90
2008,06,21,09,22,15.00
2008,06,21,09,23,15.00
2008,06,21,09,24,15.10
2008,06,21,09,25,15.20
2008,06,21,09,26,15.30
2008,06,21,09,27,15.30
2008,06,21,09,28,15.40
2008,06,21,09,29,15.50
2008,06,21,09,30,15.60
2008,06,21,09,31,15.60
2008,06,21,09,32,15.70
2008,06,21,09,33,15.80
2008,06,21,09,34,15.80
2008,06,21,09,35,15.90
2008,06,21,09,36,16.00
2008,06,21,09,37,16.10
2008,06,21,09,38,16.10
2008,06,21,09,39,16.10
2008,06,21,09,40,16.10
2008,06,21,09,41,16.10
2008,06,21,09,42,16.20
2008,06,21,09,43,16.20
2008,06,21,09,44,16.20
2008,06,21,09,45,16.30
2008,06,21,09,46,16.30
2008,06,21,09,47,16.30
2008,06,21,09,48,16.40
2008,06,21,09,49,16.40
2008,06,21,09,50,16.40
2008,06,21,09,51,16.40
2008,06,21,09,52,16.40
2008,06,21,09,53,16.60
2008,06,21,09,54,16.60
2008,06,21,09,55,16.60
2008,06,21,09,56,16.60
2008,06,21,09,57,16.70
2008,06,21,09,58,16.70
2008,06,21,09,59,16.60
2008,06,21,10,00,16.70
2008,06,21,10,01,16.70
2008,06,21,10,02,16.70
2008,06,21,10,03,16.70
2008,06,21,10,04,16.70
2008,06,21,10,05,16.80
2008,06,21,10,06,16.80
2008,06,21,10,07,16.90
2008,06,21,10,08,16.90
2008,06,21,10,09,17.00
2008,06,21,10,10,17.00
2008,06,21,10,11,17.00
2008,06,21,10,12,17.10
2008,06,21,10,13,17.30
2008,06,21,10,14,17.30
2008,06,21,10,15,17.30
2008,06,21,10,16,17.30
2008,06,21,10,17,17.30
2008,06,21,10,18,17.30
2008,06,21,10,19,17.30
2008,06,21,10,20,17.40
2008,06,21,10,21,17.40
2008,06,21,10,22,17.50
2008,06,21,10,23,17.50
2008,06,21,10,24,17.60
2008,06,21,10,25,17.60
2008,06,21,10,26,17.60
2008,06,21,10,27,17.70
2008,06,21,10,28,17.60
2008,06,21,10,29,17.60
2008,06,21,10,30,17.70
2008,06,21,10,31,17.70
2008,06,21,10,32,17.70
2008,06,21,10,33,17.60
2008,06,21,10,34,17.50
2008,06,21,10,35,17.50
2008,06,21,10,36,17.40
2008,06,21,10,37,17.40
2008,06,21,10,38,17.50
2008,06,21,10,39,17.50
2008,06,21,10,40,17.60
2008,06,21,10,41,17.50
2008,06,21,10,42,17.60
2008,06,21,10,43,17.60
2008,06,21,10,44,17.60
2008,06,21,10,45,17.60
2008,06,21,10,46,17.60
2008,06,21,10,47,17.70
2008,06,21,10,48,17.70
2008,06,21,10,49,17.80
2008,06,21,10,50,17.90
2008,06,21,10,51,17.90
2008,06,21,10,52,17.90
2008,06,21,10,53,17.90
2008,06,21,10,54,17.80
2008,06,21,10,55,17.80
2008,06,21,10,56,17.80
2008,06,21,10,57,17.80
2008,06,21,10,58,17.90
2008,06,21,10,59,17.90
2008,06,21,11,00,17.90
2008,06,21,11,01,18.10
2008,06,21,11,02,18.10
2008,06,21,11,03,18.20
2008,06,21,11,04,18.20
2008,06,21,11,05,18.20
2008,06,21,11,06,18.20
2008,06,21,11,07,18.30
2008,06,21,11,08,18.40
2008,06,21,11,09,18.50
2008,06,21,11,10,18.50
2008,06,21,11,11,18.60
2008,06,21,11,12,18.70
2008,06,21,11,13,18.80
2008,06,21,11,14,18.80
2008,06,21,11,15,18.90
2008,06,21,11,16,18.90
2008,06,21,11,17,18.90
2008,06,21,11,18,18.80
2008,06,21,11,19,18.90
2008,06,21,11,20,18.90
2008,06,21,11,21,18.90
2008,06,21,11,22,18.90
2008,06,21,11,23,19.00
2008,06,21,11,24,19.10
2008,06,21,11,25,19.10
2008,06,21,11,26,19.10
2008,06,21,11,27,19.10
2008,06,21,11,28,19.10
2008,06,21,11,29,19.10
2008,06,21,11,30,19.10
2008,06,21,11,31,19.10
2008,06,21,11,32,19.10
2008,06,21,11,33,19.10
2008,06,21,11,34,19.10
2008,06,21,11,35,19.10
2008,06,21,11,36,19.10
2008,06,21,11,37,19.10
2008,06,21,11,38,19.20
2008,06,21,11,39,19.20
2008,06,21,11,40,19.30
2008,06,21,11,41,19.20
2008,06,21,11,42,19.10
2008,06,21,11,43,19.10
2008,06,21,11,44,19.10
2008,06,21,11,45,19.10
2008,06,21,11,46,19.10
2008,06,21,11,47,19.10
2008,06,21,11,48,19.10
2008,06,21,11,49,19.10
2008,06,21,11,50,19.10
2008,06,21,11,51,19.10
2008,06,21,11,52,19.10
2008,06,21,11,53,19.10
2008,06,21,11,54,19.20
2008,06,21,11,55,19.20
2008,06,21,11,56,19.30
2008,06,21,11,57,19.30
2008,06,21,11,58,19.30
2008,06,21,11,59,19.40
2008,06,21,12,00,19.40
2008,06,21,12,01,19.30
2008,06,21,12,02,19.30
2008,06,21,12,03,19.30
2008,06,21,12,04,19.40
2008,06,21,12,05,19.40
2008,06,21,12,06,19.50
2008,06,21,12,07,19.50
2008,06,21,12,08,19.60
2008,06,21,12,09,19.60
2008,06,21,12,10,19.70
2008,06,21,12,11,19.60
2008,06,21,12,12,19.60
2008,06,21,12,13,19.60
2008,06,21,12,14,19.60
2008,06,21,12,15,19.70
2008,06,21,12,16,19.80
2008,06,21,12,17,19.90
2008,06,21,12,18,19.90
2008,06,21,12,19,20.00
2008,06,21,12,20,20.20
2008,06,21,12,21,20.30
2008,06,21,12,22,20.10
2008,06,21,12,23,19.40
2008,06,21,12,24,18.80
2008,06,21,12,25,18.20
2008,06,21,12,26,17.80
2008,06,21,12,27,17.50
2008,06,21,12,28,17.30
2008,06,21,12,29,16.90
2008,06,21,12,30,16.60
2008,06,21,12,31,16.30
2008,06,21,12,32,15.90
2008,06,21,12,33,15.80
2008,06,21,12,34,15.80
2008,06,21,12,35,15.60
2008,06,21,12,36,15.30
2008,06,21,12,37,15.00
2008,06,21,12,38,14.80
2008,06,21,12,39,14.60
2008,06,21,12,40,14.60
2008,06,21,12,41,14.60
2008,06,21,12,42,14.70
2008,06,21,12,43,14.80
2008,06,21,12,44,14.90
2008,06,21,12,45,15.00
2008,06,21,12,46,15.00
2008,06,21,12,47,14.90
2008,06,21,12,48,14.70
2008,06,21,12,49,14.50
2008,06,21,12,50,14.40
2008,06,21,12,51,14.40
2008,06,21,12,52,14.40
2008,06,21,12,53,14.20
2008,06,21,12,54,14.00
2008,06,21,12,55,14.00
2008,06,21,12,56,14.00
2008,06,21,12,57,14.00
2008,06,21,12,58,14.10
2008,06,21,12,59,14.20
2008,06,21,13,00,14.20
2008,06,21,13,01,14.20
2008,06,21,13,02,14.20
2008,06,21,13,03,14.40
2008,06,21,13,04,14.50
2008,06,21,13,05,14.60
2008,06,21,13,06,14.70
2008,06,21,13,07,14.70
2008,06,21,13,08,14.80
2008,06,21,13,09,14.80
2008,06,21,13,10,14.80
2008,06,21,13,11,14.80
2008,06,21,13,12,15.00
2008,06,21,13,13,15.10
2008,06,21,13,14,15.30
2008,06,21,13,15,15.40
2008,06,21,13,16,15.60
2008,06,21,13,17,15.70
2008,06,21,13,18,15.90
2008,06,21,13,19,16.10
2008,06,21,13,20,16.30
2008,06,21,13,21,16.40
2008,06,21,13,22,16.70
2008,06,21,13,23,16.80
2008,06,21,13,24,17.10
2008,06,21,13,25,17.30
2008,06,21,13,26,17.50
2008,06,21,13,27,17.70
2008,06,21,13,28,17.90
2008,06,21,13,29,18.20
2008,06,21,13,30,18.50
2008,06,21,13,31,18.70
2008,06,21,13,32,18.90
2008,06,21,13,33,19.10
2008,06,21,13,34,19.30
2008,06,21,13,35,19.60
2008,06,21,13,36,19.70
2008,06,21,13,37,19.90
2008,06,21,13,38,20.10
2008,06,21,13,39,20.20
2008,06,21,13,40,20.40
2008,06,21,13,41,20.60
2008,06,21,13,42,20.80
2008,06,21,13,43,20.90
2008,06,21,13,44,21.00
2008,06,21,13,45,21.20
2008,06,21,13,46,21.30
2008,06,21,13,47,21.30
2008,06,21,13,48,21.30
2008,06,21,13,49,21.40
2008,06,21,13,50,21.50
2008,06,21,13,51,21.60
2008,06,21,13,52,21.60
2008,06,21,13,53,21.70
2008,06,21,13,54,21.70
2008,06,21,13,55,21.70
2008,06,21,13,56,21.70
2008,06,21,13,57,21.80
2008,06,21,13,58,21.80
2008,06,21,13,59,21.90
2008,06,21,14,00,21.90
2008,06,21,14,01,21.90
2008,06,21,14,02,21.90
2008,06,21,14,03,21.90
2008,06,21,14,04,21.90
2008,06,21,14,05,21.90
2008,06,21,14,06,21.80
2008,06,21,14,07,21.60
2008,06,21,14,08,21.50
2008,06,21,14,09,21.20
2008,06,21,14,10,20.80
2008,06,21,14,11,20.30
2008,06,21,14,12,19.80
2008,06,21,14,13,19.40
2008,06,21,14,14,18.90
2008,06,21,14,15,18.60
2008,06,21,14,16,18.20
2008,06,21,14,17,17.90
2008,06,21,14,18,17.60
2008,06,21,14,19,17.50
2008,06,21,14,20,17.20
2008,06,21,14,21,17.00
2008,06,21,14,22,16.80
2008,06,21,14,23,16.70
2008,06,21,14,24,16.70
2008,06,21,14,25,16.60
2008,06,21,14,26,16.60
2008,06,21,14,27,16.40
2008,06,21,14,28,16.50
2008,06,21,14,29,16.60
2008,06,21,14,30,16.70
2008,06,21,14,31,16.80
2008,06,21,14,32,17.00
2008,06,21,14,33,16.90
2008,06,21,14,34,16.70
2008,06,21,14,35,16.30
2008,06,21,14,36,16.30
2008,06,21,14,37,16.40
2008,06,21,14,38,16.60
2008,06,21,14,39,16.70
2008,06,21,14,40,16.80
2008,06,21,14,41,16.90
2008,06,21,14,42,17.00
2008,06,21,14,43,17.20
2008,06,21,14,44,17.30
2008,06,21,14,45,17.50
2008,06,21,14,46,17.60
2008,06,21,14,47,17.80
2008,06,21,14,48,17.90
2008,06,21,14,49,18.00
2008,06,21,14,50,18.10
2008,06,21,14,51,18.30
2008,06,21,14,52,18.40
2008,06,21,14,53,18.60
2008,06,21,14,54,19.00
2008,06,21,14,55,19.20
2008,06,21,14,56,19.50
2008,06,21,14,57,19.70
2008,06,21,14,58,19.80
2008,06,21,14,59,19.90
2008,06,21,15,00,20.00
2008,06,21,15,01,20.10
2008,06,21,15,02,20.10
2008,06,21,15,03,20.20
2008,06,21,15,04,20.30
2008,06,21,15,05,20.30
2008,06,21,15,06,20.10
2008,06,21,15,07,20.00
2008,06,21,15,08,19.80
2008,06,21,15,09,19.50
2008,06,21,15,10,19.20
2008,06,21,15,11,18.90
2008,06,21,15,12,18.90
2008,06,21,15,13,19.00
2008,06,21,15,14,19.10
2008,06,21,15,15,18.90
2008,06,21,15,16,18.90
2008,06,21,15,17,18.80
2008,06,21,15,18,18.80
2008,06,21,15,19,18.90
2008,06,21,15,20,18.80
2008,06,21,15,21,18.80
2008,06,21,15,22,18.80
2008,06,21,15,23,18.80
2008,06,21,15,24,18.70
2008,06,21,15,25,18.70
2008,06,21,15,26,18.70
2008,06,21,15,27,18.60
2008,06,21,15,28,18.60
2008,06,21,15,29,18.60
2008,06,21,15,30,18.60
2008,06,21,15,31,18.60
2008,06,21,15,32,18.60
2008,06,21,15,33,18.70
2008,06,21,15,34,18.80
2008,06,21,15,35,18.80
2008,06,21,15,36,18.80
2008,06,21,15,37,18.80
2008,06,21,15,38,18.80
2008,06,21,15,39,18.70
2008,06,21,15,40,18.70
2008,06,21,15,41,18.70
2008,06,21,15,42,18.70
2008,06,21,15,43,18.70
2008,06,21,15,44,18.70
2008,06,21,15,45,18.60
2008,06,21,15,46,18.70
2008,06,21,15,47,18.80
2008,06,21,15,48,18.70
2008,06,21,15,49,18.70
2008,06,21,15,50,18.70
2008,06,21,15,51,18.70
2008,06,21,15,52,18.70
2008,06,21,15,53,18.70
2008,06,21,15,54,18.70
2008,06,21,15,55,18.70
2008,06,21,15,56,18.80
2008,06,21,15,57,18.90
2008,06,21,15,58,18.90
2008,06,21,15,59,18.90
2008,06,21,16,00,18.70
2008,06,21,16,01,18.60
2008,06,21,16,02,18.50
2008,06,21,16,03,18.40
2008,06,21,16,04,18.20
2008,06,21,16,05,18.20
2008,06,21,16,06,18.00
2008,06,21,16,07,17.90
2008,06,21,16,08,17.90
2008,06,21,16,09,18.00
2008,06,21,16,10,18.10
2008,06,21,16,11,18.20
2008,06,21,16,12,18.20
2008,06,21,16,13,18.10
2008,06,21,16,14,18.10
2008,06,21,16,15,18.00
2008,06,21,16,16,17.90
2008,06,21,16,17,17.90
2008,06,21,16,18,17.80
2008,06,21,16,19,17.70
2008,06,21,16,20,17.60
2008,06,21,16,21,17.40
2008,06,21,16,22,17.40
2008,06,21,16,23,17.30
2008,06,21,16,24,17.30
2008,06,21,16,25,17.30
2008,06,21,16,26,17.40
2008,06,21,16,27,17.40
2008,06,21,16,28,17.40
2008,06,21,16,29,17.50
2008,06,21,16,30,17.50
2008,06,21,16,31,17.50
2008,06,21,16,32,17.40
2008,06,21,16,33,17.30
2008,06,21,16,34,17.30
2008,06,21,16,35,17.30
2008,06,21,16,36,17.30
2008,06,21,16,37,17.30
2008,06,21,16,38,17.40
2008,06,21,16,39,17.40
2008,06,21,16,40,17.40
2008,06,21,16,41,17.40
2008,06,21,16,42,17.40
2008,06,21,16,43,17.40
2008,06,21,16,44,17.40
2008,06,21,16,45,17.30
2008,06,21,16,46,17.30
2008,06,21,16,47,17.30
2008,06,21,16,48,17.30
2008,06,21,16,49,17.30
2008,06,21,16,50,17.30
2008,06,21,16,51,17.30
2008,06,21,16,52,17.30
2008,06,21,16,53,17.30
2008,06,21,16,54,17.30
2008,06,21,16,55,17.30
2008,06,21,16,56,17.30
2008,06,21,16,57,17.30
2008,06,21,16,58,17.40
2008,06,21,16,59,17.40
2008,06,21,17,00,17.40
2008,06,21,17,01,17.50
2008,06,21,17,02,17.50
2008,06,21,17,03,17.50
2008,06,21,17,04,17.40
2008,06,21,17,05,17.40
2008,06,21,17,06,17.40
2008,06,21,17,07,17.40
2008,06,21,17,08,17.40
2008,06,21,17,09,17.40
2008,06,21,17,10,17.40
2008,06,21,17,11,17.40
2008,06,21,17,12,17.30
2008,06,21,17,13,17.30
2008,06,21,17,14,17.30
2008,06,21,17,15,17.30
2008,06,21,17,16,17.30
2008,06,21,17,17,17.30
2008,06,21,17,18,17.10
2008,06,21,17,19,16.80